Weather History for Carlsbad, NM

Change the Weather History Date:

Saturday, March 8, 2014

  Actual Average Record
Temperature  
Mean Temperature 50 °F -  
Max Temperature 57 °F 68 °F 87 °F (1960)
Min Temperature 42 °F 36 °F 22 °F (1956)
Degree Days  
Heating Degree Days 16    
Moisture  
Dew Point 29 °F    
Average Humidity 47    
Maximum Humidity 65    
Minimum Humidity 32    
Precipitation  
Precipitation 0.00 in - - ()
Sea Level Pressure  
Sea Level Pressure 30.12 in    
Wind  
Wind Speed 17 mph (North)    
Max Wind Speed 29 mph    
Max Gust Speed 36 mph    
Visibility 10 miles    
Events      
Averages and records for this station are not official NWS values.
T = Trace of Precipitation, MM = Missing Value Source: NWS Daily Summary

Daily Weather History Graph

Daily Weather History Graph

Search for Another Location

Airport:

Trip Planner

Search our weather history database for the weather conditions in past years. The results will help you decide how hot, cold, wet, or windy it might be!

Date:

Astronomy

Mar. 08, 2014 Rise Set
Actual Time 6:15 AM MST 5:59 PM MST
Civil Twilight 5:51 AM MST 6:24 PM MST
Nautical Twilight 5:23 AM MST 6:52 PM MST
Astronomical Twilight 4:54 AM MST 7:21 PM MST
Moon 11:20 AM MST (3/8) 12:39 AM MST (3/8)
Length of Visible Light 12h 32m
Length of Day
11h 43m
First Quarter, 52% of the Moon is Illuminated
Mar 8
First Quarter
Mar 16
Full
Mar 23
Last Quarter
Mar 30
New
Apr 7
First Quarter

Hourly Weather History & Observations

Time (MST) Temp. Windchill Dew Point Humidity Pressure Visibility Wind Dir Wind Speed Gust Speed Precip Events Conditions
12:53 AM 57.9 °F - 32.0 °F 37% 29.74 in 10.0 mi WNW 17.3 mph - N/A   Clear
1:53 AM 57.0 °F - 30.9 °F 37% 29.79 in 10.0 mi North 15.0 mph - N/A   Overcast
2:53 AM 54.0 °F - 33.1 °F 45% 29.83 in 10.0 mi NE 6.9 mph - N/A   Mostly Cloudy
3:53 AM 53.1 °F - 33.1 °F 47% 29.89 in 10.0 mi NNW 11.5 mph - N/A   Overcast
4:53 AM 44.1 °F 34.6 °F 33.1 °F 65% 30.01 in 9.0 mi NNW 26.5 mph 35.7 mph 0.00 in   Scattered Clouds
5:06 AM 44.1 °F 34.2 °F 33.1 °F 65% 30.10 in 9.0 mi NNW 28.8 mph 34.5 mph N/A   Mostly Cloudy
5:36 AM 42.1 °F 33.3 °F 30.9 °F 65% 30.13 in 9.0 mi NNW 19.6 mph 29.9 mph N/A   Overcast
5:53 AM 42.1 °F 33.3 °F 30.9 °F 65% 30.06 in 9.0 mi North 19.6 mph 25.3 mph N/A   Overcast
6:46 AM 42.1 °F 32.8 °F 30.0 °F 62% 30.18 in 8.0 mi North 21.9 mph - N/A   Overcast
6:53 AM 42.1 °F 32.1 °F 30.0 °F 62% 30.11 in 9.0 mi North 25.3 mph 32.2 mph N/A   Overcast
7:53 AM 45.0 °F 37.6 °F 30.9 °F 58% 30.13 in 9.0 mi North 17.3 mph - N/A   Mostly Cloudy
8:05 AM 45.0 °F 37.1 °F 30.9 °F 58% 30.21 in 10.0 mi NNW 19.6 mph 25.3 mph N/A   Scattered Clouds
8:53 AM 48.0 °F - 30.0 °F 50% 30.15 in 10.0 mi NNW 21.9 mph 29.9 mph N/A   Scattered Clouds
9:53 AM 48.9 °F - 30.0 °F 48% 30.18 in 10.0 mi North 18.4 mph - N/A   Overcast
10:53 AM 50.0 °F - 30.0 °F 46% 30.18 in 10.0 mi North 15.0 mph - N/A   Overcast
11:53 AM 52.0 °F - 30.0 °F 43% 30.17 in 10.0 mi North 18.4 mph 26.5 mph N/A   Overcast
12:53 PM 55.0 °F - 28.9 °F 37% 30.14 in 10.0 mi NNW 13.8 mph 27.6 mph N/A   Overcast
1:53 PM 55.9 °F - 28.0 °F 34% 30.12 in 10.0 mi North 19.6 mph 23.0 mph N/A   Overcast
2:53 PM 57.0 °F - 28.0 °F 33% 30.12 in 10.0 mi North 12.7 mph - N/A   Overcast
3:53 PM 57.0 °F - 27.0 °F 32% 30.14 in 10.0 mi North 18.4 mph - N/A   Overcast
4:53 PM 55.9 °F - 27.0 °F 33% 30.17 in 10.0 mi North 15.0 mph - N/A   Overcast
5:53 PM 55.0 °F - 27.0 °F 34% 30.20 in 10.0 mi North 16.1 mph 23.0 mph N/A   Overcast
6:53 PM 53.1 °F - 26.1 °F 35% 30.23 in 10.0 mi NNE 11.5 mph - N/A   Mostly Cloudy
7:53 PM 50.0 °F - 27.0 °F 41% 30.24 in 10.0 mi NNE 10.4 mph - N/A   Clear
8:53 PM 48.0 °F - 27.0 °F 44% 30.28 in 10.0 mi North 6.9 mph - N/A   Clear
9:53 PM 48.0 °F - 26.1 °F 42% 30.30 in 10.0 mi NNE 8.1 mph - N/A   Clear
10:53 PM 46.0 °F 41.9 °F 26.1 °F 46% 30.30 in 10.0 mi North 8.1 mph - N/A   Clear
11:53 PM 45.0 °F 41.8 °F 26.1 °F 48% 30.29 in 10.0 mi NNW 5.8 mph - N/A   Clear